Regional Weather Roundup
Issued by NWS Pendleton, OR

Home | Current Version | Previous Version | Text Only | Print | Product List | Glossary On
Versions: 1 2 3 4 5 6 7 8 9 10 11 12 13 14 15 16 17 18 19 20 21 22 23 24 25 26 27 28 29 30 31 32 33 34 35 36 37 38 39 40 41 42 43 44 45 46 47 48 49 50
000
ASUS46 KPDT 301025
RWRPDT
PENDLETON REGIONAL WEATHER ROUNDUP
NATIONAL WEATHER SERVICE PENDLETON OREGON
300 AM PDT THU JUL 30 2015

NOTE: FAIR INDICATES FEW OR NO CLOUDS BELOW 12,000 FEET WITH NO
SIGNIFICANT WEATHER AND/OR OBSTRUCTIONS TO VISIBILITY.

# INDICATES UNOFFICIAL STATION AND DATA

WAZ520-301110-
EAST SLOPES OF WASHINGTON CASCADES

CITY            SKY/WX      TMP DP  RH  WIND    PRES   REMARKS
#BULLFROG 2SW   N/A         54  32  43  S2      27.76S
#BUMPING DAM    N/A         54  N/A N/A NE1     N/A
#CLE ELUM HS    N/A         53  42  66  CALM    30.09S
#CLE ELUM LAKE  N/A         65  36  34  CALM    30.01S
#CLIFFDEL 2NW   N/A         54  37  52  NW1     N/A
#GLENWOOD       N/A         47  43  86  CALM    30.06R
#MANASTASH CYN  N/A         59  37  44  CALM    30.14S
#NELSON         N/A         52  34  50  CALM    30.08R
#NELSON 3SW     N/A         57  27  31  CALM    30.24S
#NILE           N/A         58  42  55  W2      29.38R
#RONALD 2NW     N/A         60  38  44  NE1     30.05S
#SNOWDEN        N/A         57  22  25  CALM    N/A
#TEANAWAY 4NE   N/A         54  40  59  N1      N/A
#TROUT LAKE 1NE N/A         58  42  55  N1      30.04S
$$

WAZ521-301110-
SIMCOE HIGHLANDS

CITY            SKY/WX      TMP DP  RH  WIND    PRES   REMARKS
#BICKLETON HS   N/A         62  25  24  CALM    N/A
#CENTERVILLE 4W N/A         67  35  30  CALM    29.86S
#CENTERVILLE 1SWN/A         51  31  46  CALM    30.00R
#GOLDENDALE     N/A         64  34  33  E1      N/A
#GOLDENDALE 1NE N/A         61  25  25  N3      N/A
#GOLDENDALE 5WNWN/A         59  36  42  CALM    30.00S
#GOODNOE HILLS  N/A         72  26  18  W3      N/A
#LYLE 6NE       N/A         66  38  36  N5      29.98R
$$

WAZ026-301110-
KITTITAS VALLEY

CITY            SKY/WX      TMP DP  RH  WIND    PRES   REMARKS
ELLENSBURG AP   CLEAR       61  37  41  SE5     30.13R
YTC-OPS AREA    N/A         72  29  20  W9      30.15S
#ELLENSBURG CWU N/A         62  43  50  NW1     30.00R
#ELLENSBURG 3NE N/A         59  40  49  CALM    30.12R
#ELLENSBURG 1E  N/A         55  40  57  CALM    N/A
#KITTITAS 3S    N/A         49  46  89  CALM    30.04S
#THORP 6N       N/A         59  37  44  N5      30.06R
$$

WAZ027-301110-
YAKIMA VALLEY

CITY            SKY/WX      TMP DP  RH  WIND    PRES   REMARKS
SUNNYSIDE AP    CLEAR       55  49  80  CALM    30.06S
YAKIMA AIRPORT  CLEAR       59  43  55  W7      30.09S
#DONALD 2NE     N/A         71  20  14  NW1     28.92S
#GRANDVIEW      N/A         60  49  67  CALM    30.04S
#MABTON         N/A         59  44  57  CALM    30.06R
#MOXEE 2E       N/A         57  34  42  CALM    30.03R
#NACHES 2SW     N/A         68  45  44  W6      30.13R
#OUTLOOK DOT    N/A         N/A N/A N/A CALM    N/A
#SELAH 8E       N/A         60  31  33  E5      N/A
#TERRACE HTS    N/A         61  44  53  CALM    30.00R
#TOPPENISH      N/A         62  49  62  CALM    29.95S
#WAPATO 4NE     N/A         71  20  14  NW1     28.92S
#WEST VALLEY    N/A         60  44  55  CALM    30.02S
#WHITE SWAN 5E  N/A         N/A N/A N/A CALM    30.03S
#WILEY CITY 3W  N/A         62  35  36  CALM    30.07S
$$

WAZ028-301110-
LOWER COLUMBIA BASIN...WASHINGTON

CITY            SKY/WX      TMP DP  RH  WIND    PRES   REMARKS
HANFORD         CLEAR       69  35  28  E3      30.04
PASCO           CLEAR       59  51  75  VRB3    30.05S
RICHLAND AWOS   CLEAR       61  52  72  CALM    30.05S
#BASIN CITY 5SW N/A         59  50  72  E2      30.05R
#BENTON CITY    N/A         64  45  50  NW1     29.93S
#CONNELL 5N     N/A         57  35  43  NE1     30.03R
#CONNELL 5NW    N/A         61  38  42  E2      29.99R
#ELTOPIA 6NW    N/A         66  43  43  NE1     29.03S
#KAHLOTUS       N/A         64  34  33  S8      30.02S
#KENNEWICK      N/A         54  32  43  S2      27.76S
#KENNEWICK 3S   N/A         67  38  34  CALM    30.02R
#PATERSON       N/A         69  40  35  NE2     30.00S
#PROSSER        N/A         68  43  40  CALM    30.02R
#SAGEMOOR 2W    N/A         68  44  42  CALM    29.87S
#TOUCHET 2S     N/A         48  42  80  CALM    30.01R
#WEST PASCO     N/A         62  49  62  CALM    30.01S
$$

WAZ029-301110-
FOOTHILLS OF THE BLUES...WASHINGTON

CITY            SKY/WX      TMP DP  RH  WIND    PRES   REMARKS
WALLA WALLA AP  CLEAR       71  37  29  E7      30.07R
#DAYTON SCHOOL  N/A         65  31  28  CALM    30.09S
#LOWDEN 2SE     N/A         55  45  69  CALM    30.02R
#PLEASANT VIEW 1N/A         70  30  22  CALM    30.05R
#PRESCOTT       N/A         57  39  51  CALM    30.01S
#SUDBURY        N/A         58  N/A N/A CALM    N/A
#WHITMAN COLLEGEN/A         72  41  33  CALM    30.06R
#WAITSBURG 8N   N/A         65  16  15  N2      29.94S
#WALLA WALLA U  N/A         65  45  48  CALM    30.01R
#WHITMAN MISSIONN/A         56  48  74  CALM    30.03S
$$

WAZ030-301110-
BLUE MOUNTAINS...WASHINGTON

CITY            SKY/WX      TMP DP  RH  WIND    PRES   REMARKS
$$

ORZ009-041-WAZ024-301110-
COLUMBIA RIVER GORGE

CITY            SKY/WX      TMP DP  RH  WIND    PRES   REMARKS
HOOD RIVER AP   CLEAR       61  46  58  SW3     30.07R
THE DALLES AP   CLEAR       62  38  41  SE6     30.04R
#ARLINGTON AIRPON/A         66  34  30  N1      N/A
#MOSIER 1S      N/A         66  27  23  CALM    30.08S
#MURDOCK        N/A         69  49  49  N2      30.04R

$$

ORZ510-301110-
NORTH CENTRAL OREGON

CITY            SKY/WX      TMP DP  RH  WIND    PRES   REMARKS
#CHENOWITH 1W   N/A         71  35  27  NW6     N/A
#DUFUR 9E       N/A         74  33  22  CALM    30.03S
#GRASS VALLEY 1SN/A         69  37  31  CALM    30.01F
#MAUPIN SCHOOL  N/A         65  35  33  CALM    30.09S
#MORO SCHOOL    N/A         56  36  47  CALM    30.11S
#SHANIKO 4NW    N/A         71  31  23  E6      30.20R
#TYGH VALLEY 2NEN/A         61  35  38  N1      30.02S
#WAPANITIA AIRPON/A         62  36  38  NW2     30.02F
#WASCO AIRPORT  N/A         66  29  25  CALM    N/A
#WASCO 5NE      N/A         56  33  42  CALM    30.02S
$$

ORZ511-301110-
CENTRAL OREGON

CITY            SKY/WX      TMP DP  RH  WIND    PRES   REMARKS
BEND AIRPORT    CLEAR       55  32  41  S6      30.20S
MADRAS AIRPORT  CLEAR       59  32  36  SE8     30.16S
PRINEVILLE AP   CLEAR       54  27  35  CALM    30.19R
REDMOND AIRPORT CLEAR       55  31  40  S6      30.18S
#BEND 1SW       N/A         51  34  52  CALM    N/A
#BEND-AWBREY    N/A         64  35  34  CALM    30.01F
#BEND-KIM LN    N/A         57  37  47  S1      30.18S
#CROOKED RVR RANN/A         60  35  39  CALM    30.00S
#CULVER         N/A         58  37  45  CALM    30.11S
#LAKE BILLY CHINN/A         65   0   7  CALM    30.18R
#POWELL BUTTE 3EN/A         58  28  32  S3      N/A
#POWELL BUTTE   N/A         60  30  32  S1      29.81S
#PRINEVILLE 3N  N/A         50  42  74  E2      30.01S
#WARM SPRINGS   N/A         59  35  40  CALM    30.07S

$$


ORZ509-301110-
EAST SLOPES OF OREGON CASCADES

CITY            SKY/WX      TMP DP  RH  WIND    PRES   REMARKS
#CAMP SHERMAN   N/A         44  30  58  CALM    30.08R
#LA PINE 4NW    N/A         44  31  60  CALM    30.09S
#SISTERS AIRPOR N/A         48  35  60  CALM    30.17S
#SISTERS 1NW    N/A         53  31  43  E7      N/A
#SISTERS 3N     N/A         47  24  40  CALM    30.31S
#SUNRIVER       N/A         50  40  68  CALM    29.94R
#TUMALO 3W      N/A         71  31  23  W2      29.89F
#WANOGA BUTTE D N/A         61  24  24  NE1     N/A

$$

ORZ044-301110-
LOWER COLUMBIA BASIN...OREGON

CITY            SKY/WX      TMP DP  RH  WIND    PRES   REMARKS
HERMISTON       CLEAR       61  40  46  SE6     30.04S
#BOARDMAN SCHOOLN/A         56  45  66  SE1     30.05R
#BOARDMAN 8SW   N/A         65  43  45  CALM    30.01S
#ECHO 8SW       N/A         60  39  46  SW2     30.06R
#IONE SCHOOL    N/A         60  36  41  CALM    30.04S
#IRRIGON 4NW    N/A         58  54  87  SE2     N/A
#UMATILLA       N/A         64  41  43  CALM    29.96R
$$

ORZ507-301110-
NORTHERN FOOTHILLS OF THE BLUES

CITY            SKY/WX      TMP DP  RH  WIND    PRES   REMARKS
PENDLETON AIRPT CLEAR       61  36  39  E8      30.08S
#ADAMS 3WNW     N/A         52  34  50  CALM    30.03R
#ATHENA         N/A         53  38  57  CALM    30.05S
#CAYUSE         N/A         69  42  37  E10     30.00S
#HELIX SCHOOL   N/A         54  33  45  CALM    30.02S
#HELIX 3N       N/A         67  37  33  N7      30.07S
#HELIX 6SW      N/A         61  37  41  CALM    30.08S
#HOLDMAN 5SE    N/A         59  38  45  SE3     30.08S
#HOLDMAN 6E     N/A         57  38  49  SE3     29.84S
#M-F GROVE ELEM N/A         72  36  27  CALM    30.05S
#M-FREEWATER 5SEN/A         71  42  35  NE3     30.07S
#PENDLETON DNTN N/A         59  32  36  CALM    30.05S
#PDT AQUATIC CTRN/A         60  32  35  CALM    30.06S
#PDT SUNRIDGE   N/A         56  37  49  CALM    30.09S
#PENDLETON 7NW  N/A         61  39  44  SE7     N/A
#PILOT ROCK     N/A         62  34  35  CALM    30.12R
#TUTUILLA       N/A         52  38  59  CALM    30.05R
#UMAPINE 2E     N/A         54  47  77  CALM    30.02R
#WESTON SCHOOL  N/A         77  30  18  W2      29.98S

$$

ORZ508-301110-
SOUTHERN FOOTHILLS OF THE BLUES

CITY            SKY/WX      TMP DP  RH  WIND    PRES   REMARKS
#CONDON SCHOOL  N/A         68  35  29  W1      30.10S
#CONDON 5W      N/A         73  31  21  CALM    30.14S
#FOSSIL SCHOOL  N/A         57  34  42  CALM    30.10S
#HEPPNER EOC    N/A         66  34  30  SE7     29.95S
#HEPPNER 4NE    N/A         66  34  30  E2      30.01S
#LEXINGTON 2SE  N/A         67  37  33  SE7     30.06S
#OLEX 4N        N/A         64  34  33  S7      30.04S
#RUGGS 5NE      N/A         63  30  29  S1      30.33S
#RUGGS 2SW      N/A         68  34  28  S8      30.02S

$$

ORZ502-503-301110-
BLUE MOUNTAINS

CITY            SKY/WX      TMP DP  RH  WIND    PRES   REMARKS
MEACHAM         CLEAR       45  37  73  CALM    30.23S
#HEPPNER 15SE   N/A         79  39  24  CALM    30.14S
#LONG CREEK HS  N/A         55  38  53  CALM    30.18R
#PIKES PEAK     N/A         78  34  20  S6      27.99S
#TOLLGATE       N/A         56  34  43  CALM    30.13S
#TROY SCHOOL    N/A         58  44  60  CALM    29.95S
#UKIAH          N/A         44  38  79  CALM    30.15R
#WESTON 4E      N/A         71  33  25  E7      29.96F
$$

ORZ505-301110-
JOHN DAY BASIN

CITY            SKY/WX      TMP DP  RH  WIND    PRES   REMARKS
JOHN DAY        CLEAR       64  32  30  SE7     30.23S
#JOHN DAY KJDY  N/A         54  44  69  N2      30.24S
#DAYVILLE SCHOOLN/A         60  28  29  CALM    30.15R
#MITCHELL       N/A         59  38  45  E3      30.32S
#MONUMENT HS    N/A         56  40  55  CALM    30.15R
#MT. VERNON 5SE N/A         63  32  31  CALM    30.19S
#WINLOCK        N/A         62  34  35  CALM    30.24S
$$

ORZ506-301110-
OCHOCO AND JOHN DAY HIGHLANDS

CITY            SKY/WX      TMP DP  RH  WIND    PRES   REMARKS
#PAULINA SCHOOL N/A         49  37  63  CALM    30.17R
#PINE MTN OBS   N/A         67  27  22  E6      N/A
#PRAIRIE CITY   N/A         47  39  74  CALM    30.27R
#SENECA         N/A         45  N/A N/A CALM    N/A
#SENECA 9NW     N/A         42  31  65  CALM    30.11S
$$

ORZ049-301110-
GRANDE RONDE VALLEY

CITY            SKY/WX      TMP DP  RH  WIND    PRES   REMARKS
LA GRANDE       CLEAR       52  32  46  CALM    30.20R
#COVE           N/A         55  44  66  NE1     30.21R
#COVE SCHOOL    N/A         56  41  57  CALM    30.21R
#COVE 6NW       N/A         51  41  68  CALM    30.13R
#ELGIN 3N       N/A         53  37  54  CALM    30.17R
#ELGIN 1E       N/A         55  39  55  CALM    N/A
#ISLAND CITY 4N N/A         64  49  58  CALM    30.00R
#LA GRANDE ELEM N/A         58  41  53  CALM    30.20R
#UNION 1S       N/A         56  41  57  CALM    29.99R
$$

ORZ050-301110-
WALLOWA COUNTY

CITY            SKY/WX      TMP DP  RH  WIND    PRES   REMARKS
JOSEPH AIRPORT  CLEAR       52  37  56  S3      30.27S
#IMNAHA SCHOOL  N/A         60  41  49  S1      30.16R
#IMNAHA 10S     N/A         60  37  42  SW5     30.19S
#JOSEPH 3N      N/A         46  36  68  CALM    30.25R
#JOSEPH 3W      N/A         59  36  42  SW3     30.10S
#LOSTINE        N/A         49  40  71  CALM    29.91R
#MT HOWARD 8000 N/A         58  30  34  SW1     30.50S
#PROMISE 1S     N/A         56  37  49  CALM    30.16S
#WALLOWA SCHOOL N/A         48  41  77  CALM    30.17S



$$



USA.gov is the U.S. government's official web portal to all federal, state and local government web resources and services.